Location: Long Island Community Building
(39.9491°N, 99.5338°W)
Time: 08:49:26
(UTC+00:00)

ALOS - Pass Details

Date: 06 December 2019
Orbit: 683 x 685 km, 97.8° (Epoch: 27 January)

Event Time Altitude Azimuth Distance (km) Brightness Sun altitude
Rises 11:59:55 0° 12° (NNE) 3,060 5.6 -19.6°
Reaches altitude 10° 12:02:10 10° 13° (NNE) 2,140 4.8 -19.2°
Maximum altitude 12:06:51 87° 99° (E) 692 2.2 -18.3°
Drops below altitude 10° 12:11:31 10° 193° (SSW) 2,123 4.8 -17.4°
Sets 12:13:44 0° 193° (SSW) 3,034 5.6 -17.0°
